Location: *
(58.4167°N, 22.5000°E)
Time: 01:11:44
(UTC+00:00)

Cosmos 1000 Rocket - Pass Details

Date: 22 September 2019
Orbit: 954 x 992 km, 82.9° (Epoch: 12 October)

Event Time Altitude Azimuth Distance (km) Brightness Sun altitude
Exits shadow 21:45:25 74° 309° (NW) 997 4.5 -31.0°
Drops below altitude 10° 21:51:22 10° 11° (N) 2,706 7.6 -31.1°
Sets 21:53:54 0° 13° (NNE) 3,660 8.5 -31.2°
